Weather History for KIPL - June, 2014

Change the Weather History Date:

Saturday, June 7, 2014

  Actual Average (KCZZ) Record (KCZZ)
Temperature  
Mean Temperature 90 °F 64 °F  
Max Temperature 105 °F 85 °F 102 °F (1985)
Min Temperature 75 °F 44 °F 31 °F (1980)
Degree Days  
Heating Degree Days 0 3  
Month to date heating degree days 22  
Since 1 June heating degree days 22  
Since 1 July heating degree days 2949  
Cooling Degree Days 24 2  
Month to date cooling degree days 14  
Year to date cooling degree days 44  
Since 1 June cooling degree days 14  
Growing Degree Days 40 (Base 50)    
Moisture  
Dew Point 32 °F    
Average Humidity 14    
Maximum Humidity 31    
Minimum Humidity 5    
Precipitation  
Precipitation 0.00 in 0.01 in 0.01 in (1998)
Month to date precipitation 0.03  
Year to date precipitation 10.07  
Snow  
Snow 0.00 in - - ()
Month to date snowfall  
Since 1 June snowfall  
Since 1 July snowfall  
Snow Depth -    
Sea Level Pressure  
Sea Level Pressure 29.61 in    
Wind  
Wind Speed 10 mph (WSW)    
Max Wind Speed 18 mph    
Max Gust Speed 28 mph    
Visibility 10 miles    
Events      
T = Trace of Precipitation, MM = Missing Value Source: NWS Daily Summary

Daily Weather History Graph

Daily Weather History Graph

Search for Another Location

Airport or City:

Trip Planner

Search our weather history database for the weather conditions in past years. The results will help you decide how hot, cold, wet, or windy it might be!

Date:

Astronomy

Jun. 07, 2014 Rise Set
Actual Time 5:33 AM PDT 7:48 PM PDT
Civil Twilight 5:05 AM PDT 8:17 PM PDT
Nautical Twilight 4:30 AM PDT 8:52 PM PDT
Astronomical Twilight 3:53 AM PDT 9:29 PM PDT
Moon 2:26 PM PDT (6/7) 1:40 AM PDT (6/7)
Length of Visible Light 15h 11m
Length of Day
14h 14m
Waxing Gibbous, 69% of the Moon is Illuminated
Jun 7
Waxing Gibbous
Jun 12
Full
Jun 19
Last Quarter
Jun 27
New
Jul 5
First Quarter

Hourly Weather History & Observations

Time (PDT) Temp. Dew Point Humidity Pressure Visibility Wind Dir Wind Speed Gust Speed Precip Events Conditions
12:53 AM 82.0 °F 33.1 °F 17% 29.61 in 10.0 mi West 16.1 mph 27.6 mph N/A   Clear
1:53 AM 80.1 °F 30.9 °F 17% 29.60 in 10.0 mi WSW 18.4 mph - N/A   Clear
2:53 AM 79.0 °F 30.0 °F 17% 29.60 in 10.0 mi WSW 13.8 mph - N/A   Clear
3:53 AM 77.0 °F 30.0 °F 18% 29.61 in 10.0 mi WSW 10.4 mph - N/A   Clear
5:53 AM 75.9 °F 30.0 °F 19% 29.62 in 10.0 mi WSW 10.4 mph - N/A   Clear
6:53 AM 77.0 °F 27.0 °F 16% 29.64 in 10.0 mi SW 9.2 mph - N/A   Clear
7:53 AM 84.2 °F 35.6 °F 18% 29.65 in 10.0 mi WSW 9.2 mph - N/A   Clear
8:53 AM 89.1 °F 36.0 °F 15% 29.65 in 10.0 mi West 9.2 mph - N/A   Clear
9:53 AM 93.9 °F 28.9 °F 10% 29.65 in 10.0 mi SSW 5.8 mph - N/A   Clear
10:53 AM 96.1 °F 24.1 °F 8% 29.65 in 10.0 mi Calm Calm - N/A   Clear
11:53 AM 98.1 °F 25.0 °F 7% 29.64 in 10.0 mi Calm Calm - N/A   Clear
12:53 PM 100.0 °F 26.1 °F 7% 29.62 in 10.0 mi West 5.8 mph - N/A   Clear
1:53 PM 102.0 °F 27.0 °F 7% 29.61 in 10.0 mi West 6.9 mph - N/A   Clear
2:53 PM 102.0 °F 21.9 °F 6% 29.59 in 10.0 mi Calm Calm - N/A   Clear
3:53 PM 104.0 °F 21.9 °F 5% 29.57 in 10.0 mi Calm Calm - N/A   Clear
4:53 PM 104.0 °F 27.0 °F 7% 29.55 in 10.0 mi SW 4.6 mph - N/A   Clear
5:53 PM 104.0 °F 25.0 °F 6% 29.54 in 10.0 mi West 3.5 mph - N/A   Clear
6:53 PM 102.9 °F 26.1 °F 7% 29.55 in 10.0 mi East 3.5 mph - N/A   Clear
7:53 PM 93.0 °F 46.0 °F 20% 29.57 in 10.0 mi WSW 5.8 mph - N/A   Clear
8:53 PM 84.0 °F 46.0 °F 26% 29.58 in 10.0 mi West 10.4 mph - N/A   Clear
9:53 PM 90.0 °F 39.9 °F 17% 29.61 in 10.0 mi SSW 3.5 mph - N/A   Clear
10:53 PM 84.0 °F 42.1 °F 23% 29.61 in 10.0 mi SW 3.5 mph - N/A   Clear
11:53 PM 82.9 °F 48.9 °F 31% 29.61 in 10.0 mi East 4.6 mph - N/A   Clear